• In Österreich
  • Länderverzeichnis
  • Für 7 Tage
  • Wassertemperatur
  • Satellitenkarten
  • Wetterkarte
  • News
  • Widgets
  • user-avatar
    Anmelden

    Stündliche Wetter Simav

    Heute, 19 November, Sonntag

    Zeit Temperatur Niederschläge Wind Luftdruck Luftfeuchtigkeit
    00:00 +10°C° 0 mm 1 m/S 687 mmHg 57%
    01:00 +10°C° 0 mm 1 m/S 686 mmHg 58%
    02:00 +10°C° 0 mm 1 m/S 686 mmHg 58%
    03:00 +10°C° 0 mm 1 m/S 686 mmHg 61%
    04:00 +9°C° 0 mm 1 m/S 686 mmHg 64%
    05:00 +9°C° 0 mm 1 m/S 686 mmHg 67%
    06:00 +10°C° 0 mm 1 m/S 686 mmHg 66%
    07:00 +10°C° 0 mm 1 m/S 686 mmHg 66%
    08:00 +10°C° 0 mm 1 m/S 686 mmHg 66%
    09:00 +12°C° 0 mm 2 m/S 686 mmHg 61%
    10:00 +12°C° 0 mm 3 m/S 687 mmHg 56%
    11:00 +14°C° 0 mm 4 m/S 687 mmHg 50%
    12:00 +14°C° 0 mm 4 m/S 686 mmHg 50%
    13:00 +15°C° 0 mm 4 m/S 686 mmHg 50%
    14:00 +15°C° 0 mm 4 m/S 686 mmHg 49%
    15:00 +14°C° 0,1 mm 4 m/S 686 mmHg 55%
    16:00 +12°C° 0,1 mm 3 m/S 685 mmHg 61%
    17:00 +12°C° 0,1 mm 2 m/S 685 mmHg 66%
    18:00 +10°C° 0,1 mm 2 m/S 685 mmHg 70%
    19:00 +10°C° 0,1 mm 2 m/S 685 mmHg 74%
    20:00 +9°C° 0,1 mm 2 m/S 685 mmHg 78%
    21:00 +9°C° 0 mm 2 m/S 685 mmHg 79%
    22:00 +9°C° 0 mm 3 m/S 685 mmHg 80%
    23:00 +9°C° 0 mm 3 m/S 685 mmHg 81%

    Morgen, 20 November, Montag

    Zeit Temperatur Niederschläge Wind Luftdruck Luftfeuchtigkeit
    00:00 +9°C° 0,2 mm 3 m/S 685 mmHg 83%
    01:00 +9°C° 0,2 mm 3 m/S 685 mmHg 84%
    02:00 +9°C° 0,2 mm 3 m/S 685 mmHg 86%
    03:00 +8°C° 0,3 mm 3 m/S 685 mmHg 89%
    04:00 +8°C° 0,3 mm 2 m/S 685 mmHg 91%
    05:00 +7°C° 0,3 mm 2 m/S 685 mmHg 94%
    06:00 +8°C° 0,4 mm 2 m/S 685 mmHg 93%
    07:00 +8°C° 0,4 mm 2 m/S 685 mmHg 92%
    08:00 +8°C° 0,4 mm 2 m/S 685 mmHg 90%
    09:00 +9°C° 0,3 mm 3 m/S 685 mmHg 82%
    10:00 +9°C° 0,3 mm 5 m/S 685 mmHg 73%
    11:00 +11°C° 0,3 mm 6 m/S 684 mmHg 64%
    12:00 +10°C° 0,8 mm 7 m/S 684 mmHg 65%
    13:00 +10°C° 0,8 mm 7 m/S 684 mmHg 66%
    14:00 +10°C° 0,8 mm 8 m/S 683 mmHg 67%
    15:00 +9°C° 0,9 mm 7 m/S 683 mmHg 72%
    16:00 +7°C° 0,9 mm 6 m/S 683 mmHg 77%
    17:00 +6°C° 0,9 mm 5 m/S 683 mmHg 82%
    18:00 +6°C° 0,6 mm 5 m/S 684 mmHg 82%
    19:00 +5°C° 0,6 mm 4 m/S 684 mmHg 82%
    20:00 +4°C° 0,6 mm 4 m/S 684 mmHg 83%
    21:00 +3°C° 0,7 mm 5 m/S 685 mmHg 83%
    22:00 +2°C° 0,7 mm 5 m/S 685 mmHg 83%
    23:00 +2°C° 0,7 mm 5 m/S 686 mmHg 84%

    übermorgen, 21 November, Dienstag

    Zeit Temperatur Niederschläge Wind Luftdruck Luftfeuchtigkeit
    00:00 +2°C° 0,6 mm 5 m/S 686 mmHg 84%
    01:00 +1°C° 0,6 mm 6 m/S 687 mmHg 85%
    02:00 +1°C° 0,6 mm 6 m/S 687 mmHg 85%
    03:00 +1°C° 0,1 mm 6 m/S 687 mmHg 85%
    04:00 +1°C° 0,1 mm 5 m/S 688 mmHg 85%
    05:00 0°C° 0,1 mm 5 m/S 688 mmHg 85%
    06:00 0°C° 0,1 mm 5 m/S 689 mmHg 85%
    07:00 0°C° 0,1 mm 4 m/S 689 mmHg 85%
    08:00 0°C° 0,1 mm 4 m/S 690 mmHg 84%
    09:00 +1°C° 0 mm 4 m/S 690 mmHg 79%
    10:00 +1°C° 0 mm 4 m/S 690 mmHg 74%
    11:00 +3°C° 0 mm 4 m/S 691 mmHg 69%
    12:00 +3°C° 0 mm 4 m/S 691 mmHg 66%
    13:00 +3°C° 0 mm 3 m/S 690 mmHg 62%
    14:00 +4°C° 0 mm 3 m/S 690 mmHg 58%
    15:00 +3°C° 0 mm 3 m/S 690 mmHg 63%
    16:00 +3°C° 0 mm 2 m/S 690 mmHg 67%
    17:00 +2°C° 0 mm 2 m/S 690 mmHg 71%
    18:00 +2°C° 0 mm 1 m/S 691 mmHg 73%
    19:00 +2°C° 0 mm 1 m/S 691 mmHg 75%
    20:00 +1°C° 0 mm 1 m/S 691 mmHg 77%
    21:00 +1°C° 0 mm 1 m/S 691 mmHg 76%
    22:00 +1°C° 0 mm 1 m/S 691 mmHg 75%
    23:00 +1°C° 0 mm 1 m/S 691 mmHg 74%

    22 November, Mittwoch

    Zeit Temperatur Niederschläge Wind Luftdruck Luftfeuchtigkeit
    00:00 +1°C° 0 mm 1 m/S 691 mmHg 72%
    01:00 0°C° 0 mm 0 m/S 691 mmHg 69%
    02:00 0°C° 0 mm 0 m/S 691 mmHg 67%
    03:00 0°C° 0 mm 0 m/S 691 mmHg 65%
    04:00 0°C° 0 mm 0 m/S 691 mmHg 63%
    05:00 0°C° 0 mm 0 m/S 691 mmHg 61%
    06:00 +1°C° 0 mm 1 m/S 691 mmHg 60%
    07:00 +2°C° 0 mm 1 m/S 692 mmHg 58%
    08:00 +3°C° 0 mm 1 m/S 692 mmHg 56%
    09:00 +5°C° 0 mm 1 m/S 692 mmHg 53%
    10:00 +6°C° 0 mm 1 m/S 693 mmHg 50%
    11:00 +8°C° 0 mm 1 m/S 693 mmHg 46%
    12:00 +9°C° 0 mm 1 m/S 693 mmHg 46%
    13:00 +9°C° 0 mm 1 m/S 693 mmHg 46%
    14:00 +10°C° 0 mm 1 m/S 692 mmHg 46%
    15:00 +9°C° 0 mm 1 m/S 692 mmHg 52%
    16:00 +7°C° 0 mm 1 m/S 692 mmHg 58%
    17:00 +6°C° 0 mm 1 m/S 692 mmHg 64%
    18:00 +6°C° 0 mm 1 m/S 692 mmHg 66%
    19:00 +5°C° 0 mm 1 m/S 692 mmHg 68%
    20:00 +5°C° 0 mm 1 m/S 693 mmHg 69%
    21:00 +5°C° 0 mm 1 m/S 693 mmHg 70%
    22:00 +4°C° 0 mm 1 m/S 693 mmHg 71%
    23:00 +4°C° 0 mm 1 m/S 693 mmHg 72%

    23 November, Donnerstag

    Zeit Temperatur Niederschläge Wind Luftdruck Luftfeuchtigkeit
    00:00 +4°C° 0 mm 1 m/S 693 mmHg 73%
    01:00 +4°C° 0 mm 1 m/S 693 mmHg 73%
    02:00 +4°C° 0 mm 1 m/S 693 mmHg 74%
    03:00 +4°C° 0 mm 1 m/S 693 mmHg 75%
    04:00 +4°C° 0 mm 1 m/S 693 mmHg 75%
    05:00 +4°C° 0 mm 1 m/S 693 mmHg 76%
    06:00 +4°C° 0 mm 1 m/S 693 mmHg 74%
    07:00 +5°C° 0 mm 1 m/S 694 mmHg 72%
    08:00 +5°C° 0 mm 1 m/S 694 mmHg 70%
    09:00 +7°C° 0 mm 1 m/S 695 mmHg 64%
    10:00 +9°C° 0 mm 1 m/S 695 mmHg 58%
    11:00 +11°C° 0 mm 1 m/S 695 mmHg 52%
    12:00 +11°C° 0 mm 1 m/S 695 mmHg 50%
    13:00 +12°C° 0 mm 1 m/S 695 mmHg 49%
    14:00 +13°C° 0 mm 2 m/S 694 mmHg 47%
    15:00 +11°C° 0 mm 1 m/S 694 mmHg 53%
    16:00 +10°C° 0 mm 1 m/S 694 mmHg 60%
    17:00 +8°C° 0 mm 1 m/S 694 mmHg 66%
    18:00 +8°C° 0 mm 1 m/S 694 mmHg 69%
    19:00 +7°C° 0 mm 1 m/S 695 mmHg 72%
    20:00 +6°C° 0 mm 2 m/S 695 mmHg 75%
    21:00 +5°C° 0 mm 2 m/S 695 mmHg 76%
    22:00 +5°C° 0 mm 2 m/S 695 mmHg 77%
    23:00 +5°C° 0 mm 2 m/S 695 mmHg 78%

    24 November, Freitag

    Zeit Temperatur Niederschläge Wind Luftdruck Luftfeuchtigkeit
    00:00 +5°C° 0 mm 2 m/S 695 mmHg 78%
    01:00 +4°C° 0 mm 2 m/S 695 mmHg 78%
    02:00 +4°C° 0 mm 2 m/S 695 mmHg 79%
    03:00 +4°C° 0 mm 2 m/S 695 mmHg 78%
    04:00 +4°C° 0 mm 2 m/S 695 mmHg 78%
    05:00 +4°C° 0 mm 2 m/S 695 mmHg 78%
    06:00 +4°C° 0 mm 2 m/S 695 mmHg 76%
    07:00 +5°C° 0 mm 2 m/S 695 mmHg 73%
    08:00 +5°C° 0 mm 2 m/S 696 mmHg 71%
    09:00 +7°C° 0 mm 2 m/S 696 mmHg 63%
    10:00 +9°C° 0 mm 2 m/S 696 mmHg 55%
    11:00 +12°C° 0 mm 2 m/S 696 mmHg 46%
    12:00 +13°C° 0 mm 1 m/S 696 mmHg 43%
    13:00 +14°C° 0 mm 1 m/S 696 mmHg 40%
    14:00 +15°C° 0 mm 1 m/S 696 mmHg 38%
    15:00 +13°C° 0 mm 1 m/S 695 mmHg 43%
    16:00 +11°C° 0 mm 1 m/S 695 mmHg 49%
    17:00 +10°C° 0 mm 1 m/S 695 mmHg 55%
    18:00 +9°C° 0 mm 1 m/S 695 mmHg 57%
    19:00 +9°C° 0 mm 1 m/S 695 mmHg 59%
    20:00 +8°C° 0 mm 1 m/S 695 mmHg 61%
    21:00 +8°C° 0 mm 1 m/S 695 mmHg 62%
    22:00 +7°C° 0 mm 1 m/S 696 mmHg 63%
    23:00 +7°C° 0 mm 1 m/S 696 mmHg 64%
    Mehr zeigen